| time (UTC) | temp C | wind direction | speed KPH | gust KPH | rain 1hr cm | rain 24hr cm | rain mn cm | humidity % | barometer mb |
| 20260509003010 | 5 | 44 | 0.0 | 0.0 | 0.00 | 0.00 | 0.00 | 86 | 1018.2 |
| 20260509001508 | 5 | 44 | 0.0 | 0.0 | 0.00 | 0.00 | 0.00 | 85 | 1018.2 |
| 20260509000005 | 6 | 44 | 0.0 | 1.6 | 0.00 | 0.00 | 0.00 | 84 | 1018.3 |
| 20260508234504 | 6 | 44 | 0.0 | 0.0 | 0.00 | 0.00 | 0.00 | 84 | 1018.4 |
| 20260508233004 | 6 | 44 | 0.0 | 0.0 | 0.00 | 0.00 | 0.00 | 83 | 1018.5 |
| 20260508231503 | 6 | 44 | 0.0 | 0.0 | 0.00 | 0.00 | 0.00 | 83 | 1018.4 |
| 20260508230004 | 6 | 44 | 0.0 | 0.0 | 0.00 | 0.00 | 0.00 | 82 | 1018.4 |
| 20260508224613 | 6 | 44 | 0.0 | 0.0 | 0.00 | 0.00 | 0.00 | 82 | 1018.4 |
| 20260508223058 | 7 | 44 | 0.0 | 0.0 | 0.00 | 0.00 | 0.00 | 80 | 1018.3 |
| 20260508221609 | 7 | 44 | 0.0 | 3.2 | 0.00 | 0.00 | 0.00 | 81 | 1018.2 |
| 20260508220054 | 7 | 44 | 0.0 | 1.6 | 0.00 | 0.00 | 0.00 | 80 | 1018.2 |
| 20260508214554 | 7 | 44 | 0.0 | 0.0 | 0.00 | 0.00 | 0.00 | 78 | 1018.3 |
| 20260508213053 | 8 | 44 | 0.0 | 0.0 | 0.00 | 0.00 | 0.00 | 76 | 1018.3 |
| 20260508211554 | 8 | 44 | 0.0 | 3.2 | 0.00 | 0.00 | 0.00 | 75 | 1018.3 |
| 20260508210052 | 8 | 44 | 0.0 | 3.2 | 0.00 | 0.00 | 0.00 | 74 | 1018.2 |
| 20260508204551 | 9 | 44 | 0.0 | 3.2 | 0.00 | 0.00 | 0.00 | 72 | 1018.2 |
| 20260508203054 | 9 | 44 | 0.0 | 3.2 | 0.00 | 0.00 | 0.00 | 72 | 1018.2 |
| 20260508201550 | 10 | 44 | 0.0 | 3.2 | 0.00 | 0.00 | 0.00 | 72 | 1018.2 |
| 20260508200100 | 10 | 44 | 0.0 | 6.4 | 0.00 | 0.00 | 0.00 | 71 | 1018.1 |
| 20260508194547 | 10 | 44 | 0.0 | 6.4 | 0.00 | 0.00 | 0.00 | 69 | 1018.0 |
| 20260508193057 | 10 | 44 | 0.0 | 6.4 | 0.00 | 0.00 | 0.00 | 67 | 1017.9 |
| 20260508191544 | 11 | 66 | 1.6 | 6.4 | 0.00 | 0.00 | 0.00 | 66 | 1017.6 |
| 20260508190043 | 11 | 66 | 1.6 | 6.4 | 0.00 | 0.00 | 0.00 | 65 | 1017.3 |
| 20260508184542 | 11 | 66 | 0.0 | 6.4 | 0.00 | 0.00 | 0.00 | 64 | 1017.3 |
| 20260508183058 | 12 | 57 | 0.0 | 8.0 | 0.00 | 0.00 | 0.00 | 63 | 1017.1 |
| 20260508181550 | 12 | 45 | 0.0 | 6.4 | 0.00 | 0.00 | 0.00 | 61 | 1017.0 |
| 20260508180037 | -17 | 0.0 | 0.0 | 0.00 | 0.00 | 0.00 | 1016.8 | ||
| 20260508174534 | 13 | 77 | 1.6 | 12.9 | 0.00 | 0.00 | 0.00 | 60 | 1016.8 |
| 20260508173036 | 13 | 71 | 1.6 | 8.0 | 0.00 | 0.00 | 0.00 | 59 | 1016.8 |
| 20260508171536 | 13 | 40 | 4.8 | 9.7 | 0.00 | 0.00 | 0.00 | 58 | 1016.7 |
| 20260508170031 | 13 | 112 | 3.2 | 12.9 | 0.00 | 0.00 | 0.00 | 57 | 1016.6 |
| 20260508164532 | 13 | 35 | 4.8 | 9.7 | 0.00 | 0.00 | 0.00 | 57 | 1016.6 |
| 20260508163030 | 13 | 67 | 4.8 | 14.5 | 0.00 | 0.00 | 0.00 | 58 | 1016.6 |
| 20260508161536 | 13 | 26 | 4.8 | 17.7 | 0.00 | 0.00 | 0.00 | 56 | 1016.6 |
| 20260508160034 | 13 | 35 | 3.2 | 16.1 | 0.00 | 0.00 | 0.00 | 55 | 1016.7 |
| 20260508154528 | 13 | 68 | 4.8 | 9.7 | 0.00 | 0.00 | 0.00 | 55 | 1016.8 |
| 20260508153027 | 14 | 111 | 3.2 | 16.1 | 0.00 | 0.00 | 0.00 | 55 | 1016.7 |
| 20260508151525 | 13 | 21 | 3.2 | 16.1 | 0.00 | 0.00 | 0.00 | 54 | 1016.9 |
| 20260508150026 | 13 | 51 | 8.0 | 16.1 | 0.00 | 0.00 | 0.00 | 56 | 1017.0 |
| 20260508144536 | 13 | 25 | 4.8 | 11.3 | 0.00 | 0.00 | 0.00 | 56 | 1017.1 |
| 20260508143029 | 13 | 49 | 4.8 | 17.7 | 0.00 | 0.00 | 0.00 | 57 | 1017.1 |
| 20260508141524 | 13 | 11 | 4.8 | 9.7 | 0.00 | 0.00 | 0.00 | 56 | 1017.2 |
| 20260508140019 | 13 | 5 | 3.2 | 11.3 | 0.00 | 0.00 | 0.00 | 55 | 1017.4 |
| 20260508134516 | 13 | 33 | 3.2 | 12.9 | 0.00 | 0.00 | 0.00 | 58 | 1017.3 |
| 20260508133015 | 13 | 42 | 4.8 | 11.3 | 0.00 | 0.00 | 0.00 | 58 | 1017.4 |
| 20260508131515 | 12 | 11 | 6.4 | 14.5 | 0.00 | 0.00 | 0.00 | 61 | 1017.4 |
| 20260508130017 | 12 | 34 | 6.4 | 16.1 | 0.00 | 0.00 | 0.00 | 63 | 1017.4 |
| 20260508124513 | 12 | 89 | 3.2 | 12.9 | 0.00 | 0.00 | 0.00 | 65 | 1017.4 |
| 20260508123013 | 12 | 96 | 3.2 | 12.9 | 0.00 | 0.00 | 0.00 | 65 | 1017.5 |
| 20260508121518 | 12 | 98 | 4.8 | 14.5 | 0.00 | 0.00 | 0.00 | 66 | 1017.5 |
| 20260508120018 | 13 | 152 | 3.2 | 12.9 | 0.00 | 0.00 | 0.00 | 62 | 1017.5 |
| 20260508114525 | 12 | 96 | 1.6 | 9.7 | 0.00 | 0.00 | 0.00 | 61 | 1017.5 |
| 20260508113010 | 12 | 87 | 1.6 | 9.7 | 0.00 | 0.00 | 0.00 | 64 | 1017.5 |
| 20260508111511 | 12 | 100 | 1.6 | 8.0 | 0.00 | 0.00 | 0.00 | 63 | 1017.5 |
| 20260508110007 | 12 | 63 | 1.6 | 14.5 | 0.00 | 0.00 | 0.00 | 64 | 1017.4 |
| 20260508104507 | 12 | 101 | 4.8 | 14.5 | 0.00 | 0.00 | 0.00 | 66 | 1017.3 |
| 20260508103006 | 12 | 44 | 3.2 | 9.7 | 0.00 | 0.00 | 0.00 | 67 | 1017.4 |
| 20260508101507 | 13 | 98 | 1.6 | 8.0 | 0.00 | 0.00 | 0.00 | 65 | 1017.4 |
| 20260508100008 | 12 | 105 | 1.6 | 6.4 | 0.00 | 0.00 | 0.00 | 65 | 1017.4 |
| 20260508094504 | 12 | 74 | 1.6 | 6.4 | 0.00 | 0.00 | 0.00 | 63 | 1017.4 |
| 20260508093007 | 12 | 38 | 1.6 | 6.4 | 0.00 | 0.00 | 0.00 | 60 | 1017.4 |
| 20260508091600 | 12 | 36 | 4.8 | 9.7 | 0.00 | 0.00 | 0.00 | 63 | 1017.4 |
| 20260508090101 | 12 | 32 | 1.6 | 11.3 | 0.00 | 0.00 | 0.00 | 68 | 1017.4 |
| 20260508084553 | 12 | 208 | 0.0 | 6.4 | 0.00 | 0.00 | 0.00 | 71 | 1017.5 |
| 20260508083052 | 12 | 194 | 1.6 | 8.0 | 0.00 | 0.00 | 0.00 | 74 | 1017.4 |
| 20260508081548 | 11 | 223 | 1.6 | 6.4 | 0.00 | 0.00 | 0.00 | 75 | 1017.3 |
| 20260508080045 | 11 | 86 | 3.2 | 6.4 | 0.00 | 0.00 | 0.00 | 76 | 1017.3 |
| 20260508074542 | 11 | 248 | 0.0 | 3.2 | 0.00 | 0.00 | 0.00 | 81 | 1017.4 |
| 20260508073039 | 10 | 248 | 0.0 | 3.2 | 0.00 | 0.00 | 0.00 | 83 | 1017.4 |
| 20260508071534 | 10 | 248 | 0.0 | 1.6 | 0.00 | 0.00 | 0.00 | 86 | 1017.3 |
| 20260508070031 | 9 | 248 | 0.0 | 4.8 | 0.00 | 0.00 | 0.00 | 87 | 1017.3 |
| 20260508064548 | 9 | 248 | 0.0 | 3.2 | 0.00 | 0.00 | 0.00 | 89 | 1017.1 |
| 20260508063027 | 8 | 248 | 0.0 | 0.0 | 0.00 | 0.00 | 0.00 | 89 | 1017.0 |
| 20260508061520 | 8 | 248 | 0.0 | 0.0 | 0.00 | 0.00 | 0.00 | 91 | 1016.9 |
| 20260508060018 | 7 | 248 | 0.0 | 0.0 | 0.00 | 0.00 | 0.00 | 92 | 1016.9 |
| 20260508054527 | 7 | 248 | 0.0 | 0.0 | 0.00 | 0.00 | 0.00 | 92 | 1016.9 |
| 20260508053018 | 7 | 248 | 0.0 | 0.0 | 0.00 | 0.00 | 0.00 | 93 | 1016.9 |
| 20260508051524 | 6 | 248 | 0.0 | 4.8 | 0.00 | 0.00 | 0.00 | 92 | 1016.8 |
| 20260508050028 | 6 | 248 | 0.0 | 0.0 | 0.00 | 0.00 | 0.00 | 93 | 1016.7 |
| 20260508044518 | 6 | 248 | 0.0 | 0.0 | 0.00 | 0.00 | 0.00 | 92 | 1016.7 |
| 20260508043015 | 6 | 248 | 0.0 | 0.0 | 0.00 | 0.00 | 0.00 | 92 | 1016.5 |
| 20260508041515 | 6 | 248 | 0.0 | 3.2 | 0.00 | 0.00 | 0.00 | 93 | 1016.5 |
| 20260508040015 | 6 | 248 | 0.0 | 0.0 | 0.00 | 0.00 | 0.00 | 92 | 1016.4 |
| 20260508034522 | 6 | 248 | 0.0 | 1.6 | 0.00 | 0.00 | 0.00 | 92 | 1016.5 |
| 20260508033014 | 6 | 248 | 0.0 | 0.0 | 0.00 | 0.00 | 0.00 | 92 | 1016.4 |
| 20260508031513 | 6 | 248 | 0.0 | 0.0 | 0.00 | 0.00 | 0.00 | 92 | 1016.4 |
| 20260508030012 | 6 | 248 | 0.0 | 0.0 | 0.00 | 0.00 | 0.00 | 93 | 1016.5 |
| 20260508024515 | 6 | 248 | 0.0 | 0.0 | 0.00 | 0.00 | 0.00 | 92 | 1016.5 |
| 20260508023013 | 6 | 248 | 0.0 | 0.0 | 0.00 | 0.00 | 0.00 | 92 | 1016.5 |
| 20260508021511 | 6 | 248 | 0.0 | 0.0 | 0.00 | 0.00 | 0.00 | 92 | 1016.5 |
| 20260508020013 | 6 | 248 | 0.0 | 0.0 | 0.00 | 0.00 | 0.00 | 92 | 1016.5 |
| 20260508014509 | 6 | 248 | 0.0 | 1.6 | 0.00 | 0.03 | 0.00 | 91 | 1016.4 |
| 20260508013007 | 6 | 248 | 0.0 | 0.0 | 0.00 | 0.03 | 0.00 | 91 | 1016.4 |
| 20260508011509 | 6 | 248 | 0.0 | 1.6 | 0.00 | 0.03 | 0.00 | 91 | 1016.4 |
| 20260508010015 | 6 | 248 | 0.0 | 0.0 | 0.00 | 0.03 | 0.00 | 90 | 1016.4 |
| 20260508004502 | 6 | 248 | 0.0 | 3.2 | 0.00 | 0.03 | 0.00 | 90 | 1016.6 |